Voltar ao catálogo

STARLINK-36920

AtivoComunicaçõesVLEO
NORAD 67947·PAYLOAD·🇺🇸 United States

Lançado Feb 24, 2026 de Vandenberg Space Force Base

Loading…

Próximas Passagens (próximas 24 horas)

TLE

AtualizadoSource: CelesTrak SupGP

Época: Sep 15, 2026, 03:39 UTC

1 67947C 26037R   26258.15256944 -.00023350  00000+0 -84597-3 0  2588
2 67947  43.0028 200.3859 0001392 274.1306 339.9268 15.27580813    18

Acompanhe STARLINK-36920 em tempo real com AllMySat

Download on the App Store